Weather History for Pellston, MI

Change the Weather History Date:

Sunday, March 4, 2012

  Actual Average Record
Temperature  
Mean Temperature 8 °F -  
Max Temperature 18 °F 32 °F 47 °F (1992)
Min Temperature -9 °F 13 °F -28 °F (1962)
Degree Days  
Heating Degree Days 57    
Moisture  
Dew Point 4 °F    
Average Humidity 81    
Maximum Humidity 92    
Minimum Humidity 60    
Precipitation  
Precipitation 0.01 in - - ()
Sea Level Pressure  
Sea Level Pressure 29.88 in    
Wind  
Wind Speed 5 mph (North)    
Max Wind Speed 8 mph    
Max Gust Speed -    
Visibility 8 miles    
Events Snow    
Averages and records for this station are not official NWS values.
T = Trace of Precipitation, MM = Missing Value Source: NWS Daily Summary

Daily Weather History Graph

Daily Weather History Graph

Search for Another Location

Airport:

Trip Planner

Search our weather history database for the weather conditions in past years. The results will help you decide how hot, cold, wet, or windy it might be!

Date:

Astronomy

Mar. 04, 2012 Rise Set
Actual Time 7:11 AM EST 6:30 PM EST
Civil Twilight 6:41 AM EST 7:00 PM EST
Nautical Twilight 6:07 AM EST 7:34 PM EST
Astronomical Twilight 5:32 AM EST 8:09 PM EST
Moon 2:32 PM EST (3/4) 4:41 AM EST (3/4)
Length of Visible Light 12h 18m
Length of Day
11h 19m
Waxing Gibbous, 83% of the Moon is Illuminated
Mar 4
Waxing Gibbous
Mar 8
Full
Mar 14
Last Quarter
Mar 22
New
Mar 30
First Quarter

Hourly Weather History & Observations

Time (EST) Temp. Windchill Dew Point Humidity Pressure Visibility Wind Dir Wind Speed Gust Speed Precip Events Conditions
12:19 AM 15.8 °F 6.1 °F 12.2 °F 86% 29.74 in 1.5 mi NNW 6.9 mph - 0.00 in Snow Light Snow
12:54 AM 14.0 °F 6.5 °F 12.0 °F 92% 29.78 in 1.2 mi North 4.6 mph - 0.01 in Snow Light Snow
1:14 AM 14.0 °F 3.9 °F 10.4 °F 86% 29.75 in 2.0 mi North 6.9 mph - 0.00 in Snow Light Snow
1:31 AM 14.0 °F 3.9 °F 10.4 °F 86% 29.75 in 4.0 mi North 6.9 mph - 0.00 in Snow Light Snow
1:54 AM 12.9 °F 3.8 °F 10.0 °F 88% 29.80 in 4.0 mi North 5.8 mph - 0.00 in Snow Light Snow
2:54 AM 10.9 °F -0.8 °F 8.1 °F 88% 29.82 in 4.0 mi North 8.1 mph - 0.00 in Snow Light Snow
3:54 AM 10.0 °F -1.9 °F 6.1 °F 84% 29.82 in 8.0 mi NNE 8.1 mph - 0.00 in Snow Light Snow
4:05 AM 8.6 °F -2.6 °F 6.8 °F 92% 29.78 in 9.0 mi NNE 6.9 mph - 0.00 in   Overcast
4:26 AM 8.6 °F -2.6 °F 5.0 °F 85% 29.79 in 10.0 mi North 6.9 mph - 0.00 in   Overcast
4:51 AM 8.6 °F -2.6 °F 3.2 °F 79% 29.80 in 6.0 mi North 6.9 mph - 0.00 in Snow Light Snow
4:54 AM 8.1 °F -3.2 °F 3.9 °F 83% 29.84 in 6.0 mi North 6.9 mph - 0.00 in Snow Light Snow
5:54 AM 5.0 °F -4.1 °F 1.9 °F 87% 29.86 in 10.0 mi NNW 4.6 mph - 0.00 in   Mostly Cloudy
6:54 AM 5.0 °F -2.1 °F 1.9 °F 87% 29.87 in 10.0 mi North 3.5 mph - N/A   Overcast
7:13 AM 5.0 °F -5.6 °F 1.4 °F 85% 29.82 in 10.0 mi North 5.8 mph - N/A   Overcast
7:54 AM 3.0 °F -4.4 °F -0.0 °F 87% 29.89 in 10.0 mi NNW 3.5 mph - N/A   Overcast
8:18 AM 1.4 °F -6.2 °F -2.2 °F 85% 29.85 in 10.0 mi NNW 3.5 mph - N/A   Overcast
8:54 AM 5.0 °F -5.6 °F 1.0 °F 84% 29.91 in 10.0 mi North 5.8 mph - N/A   Clear
9:54 AM 10.0 °F 1.8 °F 3.0 °F 73% 29.90 in 10.0 mi NE 4.6 mph - N/A   Mostly Cloudy
10:54 AM 10.9 °F - 5.0 °F 77% 29.91 in 10.0 mi Calm Calm - N/A   Scattered Clouds
11:44 AM 12.2 °F - 5.0 °F 73% 29.87 in 10.0 mi Calm Calm - N/A   Mostly Cloudy
11:54 AM 12.0 °F - 5.0 °F 73% 29.92 in 10.0 mi Calm Calm - N/A   Mostly Cloudy
12:54 PM 14.0 °F - 7.0 °F 74% 29.92 in 10.0 mi Calm Calm - N/A   Overcast
1:54 PM 16.0 °F - 9.0 °F 74% 29.91 in 10.0 mi Calm Calm - N/A   Overcast
2:43 PM 17.6 °F 10.7 °F 6.8 °F 63% 29.86 in 10.0 mi North 4.6 mph - N/A   Scattered Clouds
2:54 PM 18.0 °F 11.1 °F 7.0 °F 62% 29.91 in 10.0 mi NNW 4.6 mph - N/A   Partly Cloudy
3:54 PM 18.0 °F 9.8 °F 6.1 °F 60% 29.91 in 10.0 mi North 5.8 mph - N/A   Clear
4:54 PM 14.0 °F 5.1 °F 5.0 °F 67% 29.94 in 10.0 mi NNE 5.8 mph - N/A   Clear
5:54 PM 12.9 °F 5.2 °F 3.0 °F 65% 29.95 in 10.0 mi NNE 4.6 mph - N/A   Clear
6:54 PM 9.0 °F 2.4 °F 5.0 °F 84% 29.98 in 10.0 mi North 3.5 mph - N/A   Partly Cloudy
7:54 PM 3.0 °F - 1.0 °F 91% 30.00 in 10.0 mi Calm Calm - N/A   Clear
8:54 PM -0.9 °F - -2.9 °F 91% 30.02 in 8.0 mi Calm Calm - N/A   Overcast
9:54 PM -0.0 °F - -2.9 °F 88% 30.03 in 10.0 mi Calm Calm - N/A   Overcast
10:54 PM -2.9 °F - -5.1 °F 90% 30.03 in 10.0 mi Calm Calm - N/A   Clear
11:54 PM -9.0 °F - -11.9 °F 87% 30.04 in 10.0 mi Calm Calm - N/A   Clear